Time,TemperatureF,DewpointF,PressureIn,WindDirection,WindDirectionDegrees,WindSpeedMPH,WindSpeedGustMPH,Humidity,HourlyPrecipIn,Conditions,Clouds,dailyrainin,SoftwareType,DateUTC
2013-05-08 00:02:00,52.5,47.7,0.00,NE,51,1.2,4.6,84,0.00,,,0.00,WUHU216CR1000,2013-05-08 07:02:00,
2013-05-08 00:07:00,52.5,47.7,0.00,NE,51,1.2,4.6,84,0.00,,,0.00,WUHU216CR1000,2013-05-08 07:07:00,
2013-05-08 00:17:00,51.5,48.0,0.00,NW,326,0.8,2.8,88,0.00,,,0.00,WUHU216CR1000,2013-05-08 07:17:00,
2013-05-08 00:22:00,51.5,48.0,0.00,NW,326,0.8,2.8,88,0.00,,,0.00,WUHU216CR1000,2013-05-08 07:22:00,
2013-05-08 00:32:00,51.2,48.0,0.00,NNW,338,0.8,2.8,89,0.00,,,0.00,WUHU216CR1000,2013-05-08 07:32:00,
2013-05-08 00:37:00,51.2,48.0,0.00,NNW,338,0.8,2.8,89,0.00,,,0.00,WUHU216CR1000,2013-05-08 07:37:00,
2013-05-08 00:47:00,50.3,47.0,0.00,WSW,246,1.1,2.8,89,0.00,,,0.00,WUHU216CR1000,2013-05-08 07:47:00,
2013-05-08 00:52:00,50.3,47.0,0.00,WSW,246,1.1,2.8,89,0.00,,,0.00,WUHU216CR1000,2013-05-08 07:52:00,
2013-05-08 01:02:00,49.4,46.4,0.00,North,352,1.0,4.6,90,0.00,,,0.00,WUHU216CR1000,2013-05-08 08:02:00,
2013-05-08 01:07:00,49.4,46.4,0.00,North,352,1.0,4.6,90,0.00,,,0.00,WUHU216CR1000,2013-05-08 08:07:00,
2013-05-08 01:17:00,49.2,46.6,0.00,West,270,1.2,2.8,91,0.00,,,0.00,WUHU216CR1000,2013-05-08 08:17:00,
2013-05-08 01:22:00,49.2,46.6,0.00,West,270,1.2,2.8,91,0.00,,,0.00,WUHU216CR1000,2013-05-08 08:22:00,
2013-05-08 01:32:00,48.8,46.2,0.00,West,262,0.6,2.8,91,0.00,,,0.00,WUHU216CR1000,2013-05-08 08:32:00,
2013-05-08 01:37:00,48.8,46.2,0.00,West,262,0.6,2.8,91,0.00,,,0.00,WUHU216CR1000,2013-05-08 08:37:00,
2013-05-08 01:47:00,48.4,46.0,0.00,WNW,283,0.2,2.8,91,0.00,,,0.00,WUHU216CR1000,2013-05-08 08:47:00,
2013-05-08 01:52:00,48.4,46.0,0.00,WNW,283,0.2,2.8,91,0.00,,,0.00,WUHU216CR1000,2013-05-08 08:52:00,
2013-05-08 02:02:00,47.8,45.5,0.00,SW,215,0.2,2.8,92,0.00,,,0.00,WUHU216CR1000,2013-05-08 09:02:00,
2013-05-08 02:07:00,47.8,45.5,0.00,SW,215,0.2,2.8,92,0.00,,,0.00,WUHU216CR1000,2013-05-08 09:07:00,
2013-05-08 02:17:00,47.6,45.7,0.00,SW,216,0.2,2.8,93,0.00,,,0.00,WUHU216CR1000,2013-05-08 09:17:00,
2013-05-08 02:22:00,47.6,45.7,0.00,SW,216,0.2,2.8,93,0.00,,,0.00,WUHU216CR1000,2013-05-08 09:22:00,
2013-05-08 02:32:00,47.9,46.0,0.00,West,261,0.4,2.8,93,0.00,,,0.00,WUHU216CR1000,2013-05-08 09:32:00,
2013-05-08 02:37:00,47.9,46.0,0.00,West,261,0.4,2.8,93,0.00,,,0.00,WUHU216CR1000,2013-05-08 09:37:00,
2013-05-08 02:47:00,48.2,46.5,0.00,NNE,21,0.2,2.8,94,0.00,,,0.00,WUHU216CR1000,2013-05-08 09:47:00,
2013-05-08 02:52:00,48.2,46.5,0.00,NNE,21,0.2,2.8,94,0.00,,,0.00,WUHU216CR1000,2013-05-08 09:52:00,
2013-05-08 03:02:00,47.8,45.9,0.00,NNE,27,0.1,2.8,93,0.00,,,0.00,WUHU216CR1000,2013-05-08 10:02:00,
2013-05-08 03:07:00,47.8,45.9,0.00,NNE,27,0.1,2.8,93,0.00,,,0.00,WUHU216CR1000,2013-05-08 10:07:00,
2013-05-08 03:17:00,47.5,45.7,0.00,WSW,251,0.6,2.8,93,0.00,,,0.00,WUHU216CR1000,2013-05-08 10:17:00,
2013-05-08 03:22:00,47.5,45.7,0.00,WSW,251,0.6,2.8,93,0.00,,,0.00,WUHU216CR1000,2013-05-08 10:22:00,
2013-05-08 03:32:00,48.2,46.6,0.00,West,279,1.0,2.8,94,0.00,,,0.00,WUHU216CR1000,2013-05-08 10:32:00,
2013-05-08 03:37:00,48.2,46.6,0.00,West,279,1.0,2.8,94,0.00,,,0.00,WUHU216CR1000,2013-05-08 10:37:00,
2013-05-08 03:47:00,49.3,47.6,0.00,SSW,208,0.1,2.8,94,0.00,,,0.00,WUHU216CR1000,2013-05-08 10:47:00,
2013-05-08 03:52:00,49.3,47.6,0.00,SSW,208,0.1,2.8,94,0.00,,,0.00,WUHU216CR1000,2013-05-08 10:52:00,
2013-05-08 04:02:00,49.9,48.1,0.00,SSW,192,0.2,2.8,94,0.00,,,0.00,WUHU216CR1000,2013-05-08 11:02:00,
2013-05-08 04:07:00,49.9,48.1,0.00,SSW,192,0.2,2.8,94,0.00,,,0.00,WUHU216CR1000,2013-05-08 11:07:00,
2013-05-08 04:17:00,50.5,48.6,0.00,South,191,0.7,4.6,93,0.00,,,0.00,WUHU216CR1000,2013-05-08 11:17:00,
2013-05-08 04:22:00,50.5,48.6,0.00,South,191,0.7,4.6,93,0.00,,,0.00,WUHU216CR1000,2013-05-08 11:22:00,
2013-05-08 04:32:00,50.9,48.7,0.00,ESE,112,0.4,2.8,92,0.00,,,0.00,WUHU216CR1000,2013-05-08 11:32:00,
2013-05-08 04:37:00,50.9,48.7,0.00,ESE,112,0.4,2.8,92,0.00,,,0.00,WUHU216CR1000,2013-05-08 11:37:00,
2013-05-08 04:47:00,50.7,48.3,0.00,ESE,120,0.7,2.8,92,0.00,,,0.00,WUHU216CR1000,2013-05-08 11:47:00,
2013-05-08 04:52:00,50.7,48.3,0.00,ESE,120,0.7,2.8,92,0.00,,,0.00,WUHU216CR1000,2013-05-08 11:52:00,
2013-05-08 05:02:00,50.6,48.3,0.00,NNW,341,0.7,2.8,92,0.00,,,0.00,WUHU216CR1000,2013-05-08 12:02:00,
2013-05-08 05:07:00,50.6,48.3,0.00,NNW,341,0.7,2.8,92,0.00,,,0.00,WUHU216CR1000,2013-05-08 12:07:00,
2013-05-08 05:17:00,51.1,48.8,0.00,NNW,344,0.6,4.6,92,0.00,,,0.00,WUHU216CR1000,2013-05-08 12:17:00,
2013-05-08 05:22:00,51.1,48.8,0.00,NNW,344,0.6,4.6,92,0.00,,,0.00,WUHU216CR1000,2013-05-08 12:22:00,
2013-05-08 05:32:00,51.4,48.8,0.00,NNE,26,0.1,2.8,91,0.00,,,0.00,WUHU216CR1000,2013-05-08 12:32:00,
2013-05-08 05:37:00,51.4,48.8,0.00,NNE,26,0.1,2.8,91,0.00,,,0.00,WUHU216CR1000,2013-05-08 12:37:00,
2013-05-08 05:47:00,51.7,48.7,0.00,East,94,1.9,4.6,90,0.00,,,0.00,WUHU216CR1000,2013-05-08 12:47:00,
2013-05-08 05:52:00,51.7,48.7,0.00,East,94,1.9,4.6,90,0.00,,,0.00,WUHU216CR1000,2013-05-08 12:52:00,
2013-05-08 06:02:00,51.6,48.6,0.00,SSE,148,2.1,4.6,89,0.00,,,0.00,WUHU216CR1000,2013-05-08 13:02:00,
2013-05-08 06:07:00,51.6,48.6,0.00,SSE,148,2.1,4.6,89,0.00,,,0.00,WUHU216CR1000,2013-05-08 13:07:00,
2013-05-08 06:17:00,51.7,48.7,0.00,ESE,111,0.6,2.8,89,0.00,,,0.00,WUHU216CR1000,2013-05-08 13:17:00,
2013-05-08 06:22:00,51.7,48.7,0.00,ESE,111,0.6,2.8,89,0.00,,,0.00,WUHU216CR1000,2013-05-08 13:22:00,
2013-05-08 06:32:00,51.9,48.7,0.00,South,188,0.6,4.6,89,0.00,,,0.00,WUHU216CR1000,2013-05-08 13:32:00,
2013-05-08 06:37:00,51.9,48.7,0.00,South,188,0.6,4.6,89,0.00,,,0.00,WUHU216CR1000,2013-05-08 13:37:00,
2013-05-08 06:47:00,52.1,48.6,0.00,SW,222,0.6,4.6,88,0.00,,,0.00,WUHU216CR1000,2013-05-08 13:47:00,
2013-05-08 06:52:00,52.1,48.6,0.00,SW,222,0.6,4.6,88,0.00,,,0.00,WUHU216CR1000,2013-05-08 13:52:00,
2013-05-08 07:02:00,52.1,48.5,0.00,SW,218,2.3,4.6,87,0.00,,,0.00,WUHU216CR1000,2013-05-08 14:02:00,
2013-05-08 07:07:00,52.1,48.5,0.00,SW,218,2.3,4.6,87,0.00,,,0.00,WUHU216CR1000,2013-05-08 14:07:00,
2013-05-08 07:17:00,52.3,48.6,0.00,South,191,1.1,4.6,87,0.00,,,0.00,WUHU216CR1000,2013-05-08 14:17:00,
2013-05-08 07:22:00,52.3,48.6,0.00,South,191,1.1,4.6,87,0.00,,,0.00,WUHU216CR1000,2013-05-08 14:22:00,
2013-05-08 07:32:00,52.5,48.7,0.00,SW,234,4.0,9.9,87,0.00,,,0.00,WUHU216CR1000,2013-05-08 14:32:00,
2013-05-08 07:37:00,52.5,48.7,0.00,SW,234,4.0,9.9,87,0.00,,,0.00,WUHU216CR1000,2013-05-08 14:37:00,
2013-05-08 07:47:00,52.0,48.5,0.00,SW,232,5.9,9.9,88,0.00,,,0.00,WUHU216CR1000,2013-05-08 14:47:00,
2013-05-08 07:52:00,52.0,48.5,0.00,SW,232,5.9,9.9,88,0.00,,,0.00,WUHU216CR1000,2013-05-08 14:52:00,
2013-05-08 08:02:00,52.5,48.9,0.00,SW,235,5.3,9.9,88,0.00,,,0.00,WUHU216CR1000,2013-05-08 15:02:00,
2013-05-08 08:07:00,52.5,48.9,0.00,SW,235,5.3,9.9,88,0.00,,,0.00,WUHU216CR1000,2013-05-08 15:07:00,
2013-05-08 08:17:00,52.9,48.9,0.00,SW,235,5.7,11.7,86,0.00,,,0.00,WUHU216CR1000,2013-05-08 15:17:00,
2013-05-08 08:22:00,52.9,48.9,0.00,SW,235,5.7,11.7,86,0.00,,,0.00,WUHU216CR1000,2013-05-08 15:22:00,
2013-05-08 08:32:00,52.9,48.9,0.00,WSW,238,6.0,11.7,86,0.00,,,0.00,WUHU216CR1000,2013-05-08 15:32:00,
2013-05-08 08:37:00,52.9,48.9,0.00,WSW,238,6.0,11.7,86,0.00,,,0.00,WUHU216CR1000,2013-05-08 15:37:00,
2013-05-08 08:47:00,53.9,49.0,0.00,WSW,238,6.5,13.5,84,0.00,,,0.00,WUHU216CR1000,2013-05-08 15:47:00,
2013-05-08 08:52:00,53.9,49.0,0.00,WSW,238,6.5,13.5,84,0.00,,,0.00,WUHU216CR1000,2013-05-08 15:52:00,
2013-05-08 09:02:00,55.0,49.2,0.00,West,260,5.0,11.7,81,0.00,,,0.00,WUHU216CR1000,2013-05-08 16:02:00,
2013-05-08 09:07:00,55.0,49.2,0.00,West,260,5.0,11.7,81,0.00,,,0.00,WUHU216CR1000,2013-05-08 16:07:00,
2013-05-08 09:17:00,54.3,48.8,0.00,WSW,239,6.7,11.7,82,0.00,,,0.00,WUHU216CR1000,2013-05-08 16:17:00,
2013-05-08 09:22:00,54.3,48.8,0.00,WSW,239,6.7,11.7,82,0.00,,,0.00,WUHU216CR1000,2013-05-08 16:22:00,
2013-05-08 09:32:00,54.5,48.9,0.00,WSW,237,5.9,11.7,81,0.00,,,0.00,WUHU216CR1000,2013-05-08 16:32:00,
2013-05-08 09:37:00,54.5,48.9,0.00,WSW,237,5.9,11.7,81,0.00,,,0.00,WUHU216CR1000,2013-05-08 16:37:00,
2013-05-08 09:47:00,55.5,49.2,0.00,SW,228,5.1,9.9,79,0.00,,,0.00,WUHU216CR1000,2013-05-08 16:47:00,
2013-05-08 09:52:00,55.5,49.2,0.00,SW,228,5.1,9.9,79,0.00,,,0.00,WUHU216CR1000,2013-05-08 16:52:00,
2013-05-08 10:02:00,56.0,49.3,0.00,WSW,238,5.8,11.7,78,0.00,,,0.00,WUHU216CR1000,2013-05-08 17:02:00,
2013-05-08 10:07:00,56.0,49.3,0.00,WSW,238,5.8,11.7,78,0.00,,,0.00,WUHU216CR1000,2013-05-08 17:07:00,
2013-05-08 10:16:00,55.8,49.1,0.00,WSW,239,6.6,9.9,78,0.00,,,0.00,WUHU216CR1000,2013-05-08 17:16:00,
2013-05-08 10:17:00,55.8,49.1,0.00,WSW,239,6.6,9.9,78,0.00,,,0.00,WUHU216CR1000,2013-05-08 17:17:00,
2013-05-08 10:22:00,55.8,49.1,0.00,WSW,239,6.6,9.9,78,0.00,,,0.00,WUHU216CR1000,2013-05-08 17:22:00,
2013-05-08 10:32:00,56.4,49.4,0.00,WSW,238,6.3,9.9,77,0.00,,,0.00,WUHU216CR1000,2013-05-08 17:32:00,
2013-05-08 10:37:00,56.4,49.4,0.00,WSW,238,6.3,9.9,77,0.00,,,0.00,WUHU216CR1000,2013-05-08 17:37:00,
2013-05-08 10:46:00,56.7,49.6,0.00,WSW,237,7.6,13.5,77,0.00,,,0.00,WUHU216CR1000,2013-05-08 17:46:00,
2013-05-08 10:47:00,56.7,49.6,0.00,WSW,237,7.6,13.5,77,0.00,,,0.00,WUHU216CR1000,2013-05-08 17:47:00,
2013-05-08 10:52:00,56.7,49.6,0.00,WSW,237,7.6,13.5,77,0.00,,,0.00,WUHU216CR1000,2013-05-08 17:52:00,
2013-05-08 11:02:00,56.9,49.6,0.00,WSW,240,7.3,11.7,76,0.00,,,0.00,WUHU216CR1000,2013-05-08 18:02:00,
2013-05-08 11:07:00,56.9,49.6,0.00,WSW,240,7.3,11.7,76,0.00,,,0.00,WUHU216CR1000,2013-05-08 18:07:00,
2013-05-08 11:16:00,57.1,49.6,0.00,WSW,241,8.1,11.7,76,0.00,,,0.00,WUHU216CR1000,2013-05-08 18:16:00,
2013-05-08 11:17:00,57.1,49.6,0.00,WSW,241,8.1,11.7,76,0.00,,,0.00,WUHU216CR1000,2013-05-08 18:17:00,
2013-05-08 11:22:00,57.1,49.6,0.00,WSW,241,8.1,11.7,76,0.00,,,0.00,WUHU216CR1000,2013-05-08 18:22:00,
2013-05-08 11:32:00,57.6,49.9,0.00,WSW,239,8.1,13.5,75,0.00,,,0.00,WUHU216CR1000,2013-05-08 18:32:00,
2013-05-08 11:37:00,57.6,49.9,0.00,WSW,239,8.1,13.5,75,0.00,,,0.00,WUHU216CR1000,2013-05-08 18:37:00,
2013-05-08 11:46:00,58.6,50.2,0.00,WSW,239,8.0,13.5,74,0.00,,,0.00,WUHU216CR1000,2013-05-08 18:46:00,
2013-05-08 11:47:00,58.6,50.2,0.00,WSW,239,8.0,13.5,74,0.00,,,0.00,WUHU216CR1000,2013-05-08 18:47:00,
2013-05-08 11:52:00,58.6,50.2,0.00,WSW,239,8.0,13.5,74,0.00,,,0.00,WUHU216CR1000,2013-05-08 18:52:00,
2013-05-08 12:02:00,60.1,50.5,0.00,WSW,238,6.9,13.5,71,0.00,,,0.00,WUHU216CR1000,2013-05-08 19:02:00,
2013-05-08 12:07:00,60.1,50.5,0.00,WSW,238,6.9,13.5,71,0.00,,,0.00,WUHU216CR1000,2013-05-08 19:07:00,
2013-05-08 12:17:00,62.0,50.9,0.00,WSW,243,7.6,13.5,67,0.00,,,0.00,WUHU216CR1000,2013-05-08 19:17:00,
2013-05-08 12:22:00,62.0,50.9,0.00,WSW,243,7.6,13.5,67,0.00,,,0.00,WUHU216CR1000,2013-05-08 19:22:00,
2013-05-08 12:47:00,62.4,51.1,0.00,WSW,241,9.1,17.1,67,0.00,,,0.00,WUHU216CR1000,2013-05-08 19:47:00,
2013-05-08 12:52:00,62.4,51.1,0.00,WSW,241,9.1,17.1,67,0.00,,,0.00,WUHU216CR1000,2013-05-08 19:52:00,
2013-05-08 13:02:00,63.2,51.1,0.00,WSW,239,9.7,17.1,65,0.00,,,0.00,WUHU216CR1000,2013-05-08 20:02:00,
2013-05-08 13:07:00,63.2,51.1,0.00,WSW,239,9.7,17.1,65,0.00,,,0.00,WUHU216CR1000,2013-05-08 20:07:00,
2013-05-08 13:17:00,63.3,51.1,0.00,WSW,238,9.1,15.3,64,0.00,,,0.00,WUHU216CR1000,2013-05-08 20:17:00,
2013-05-08 13:22:00,63.3,51.1,0.00,WSW,238,9.1,15.3,64,0.00,,,0.00,WUHU216CR1000,2013-05-08 20:22:00,
2013-05-08 13:32:00,64.5,51.4,0.00,WSW,243,8.3,17.1,62,0.00,,,0.00,WUHU216CR1000,2013-05-08 20:32:00,
2013-05-08 13:37:00,64.5,51.4,0.00,WSW,243,8.3,17.1,62,0.00,,,0.00,WUHU216CR1000,2013-05-08 20:37:00,
2013-05-08 13:47:00,64.8,51.3,0.00,WSW,238,9.4,15.3,62,0.00,,,0.00,WUHU216CR1000,2013-05-08 20:47:00,
2013-05-08 13:52:00,64.8,51.3,0.00,WSW,238,9.4,15.3,62,0.00,,,0.00,WUHU216CR1000,2013-05-08 20:52:00,
2013-05-08 14:02:00,65.9,51.5,0.00,WSW,246,7.8,13.5,60,0.00,,,0.00,WUHU216CR1000,2013-05-08 21:02:00,
2013-05-08 14:07:00,65.9,51.5,0.00,WSW,246,7.8,13.5,60,0.00,,,0.00,WUHU216CR1000,2013-05-08 21:07:00,
2013-05-08 14:17:00,65.6,51.4,0.00,WSW,241,10.1,17.1,60,0.00,,,0.00,WUHU216CR1000,2013-05-08 21:17:00,
2013-05-08 14:22:00,65.6,51.4,0.00,WSW,241,10.1,17.1,60,0.00,,,0.00,WUHU216CR1000,2013-05-08 21:22:00,
2013-05-08 14:47:00,65.5,51.5,0.00,WSW,240,10.2,17.1,60,0.00,,,0.00,WUHU216CR1000,2013-05-08 21:47:00,
2013-05-08 14:52:00,65.5,51.5,0.00,WSW,240,10.2,17.1,60,0.00,,,0.00,WUHU216CR1000,2013-05-08 21:52:00,
2013-05-08 15:02:00,65.3,51.5,0.00,WSW,237,9.4,15.3,61,0.00,,,0.00,WUHU216CR1000,2013-05-08 22:02:00,
2013-05-08 15:07:00,65.3,51.5,0.00,WSW,237,9.4,15.3,61,0.00,,,0.00,WUHU216CR1000,2013-05-08 22:07:00,
2013-05-08 15:17:00,66.2,51.7,0.00,WSW,240,9.0,15.3,60,0.00,,,0.00,WUHU216CR1000,2013-05-08 22:17:00,
2013-05-08 15:22:00,66.2,51.7,0.00,WSW,240,9.0,15.3,60,0.00,,,0.00,WUHU216CR1000,2013-05-08 22:22:00,
2013-05-08 15:32:00,66.0,51.7,0.00,WSW,241,9.7,18.9,60,0.00,,,0.00,WUHU216CR1000,2013-05-08 22:32:00,
2013-05-08 15:37:00,66.0,51.7,0.00,WSW,241,9.7,18.9,60,0.00,,,0.00,WUHU216CR1000,2013-05-08 22:37:00,
2013-05-08 15:47:00,65.6,51.5,0.00,WSW,245,9.6,17.1,60,0.00,,,0.00,WUHU216CR1000,2013-05-08 22:47:00,
2013-05-08 15:52:00,65.6,51.5,0.00,WSW,245,9.6,17.1,60,0.00,,,0.00,WUHU216CR1000,2013-05-08 22:52:00,
2013-05-08 16:02:00,65.1,51.1,0.00,WSW,249,9.5,17.1,60,0.00,,,0.00,WUHU216CR1000,2013-05-08 23:02:00,
2013-05-08 16:07:00,65.1,51.1,0.00,WSW,249,9.5,17.1,60,0.00,,,0.00,WUHU216CR1000,2013-05-08 23:07:00,
2013-05-08 16:17:00,64.8,51.0,0.00,WSW,242,10.6,18.9,61,0.00,,,0.00,WUHU216CR1000,2013-05-08 23:17:00,
2013-05-08 16:22:00,64.8,51.0,0.00,WSW,242,10.6,18.9,61,0.00,,,0.00,WUHU216CR1000,2013-05-08 23:22:00,
2013-05-08 16:32:00,63.3,50.6,0.00,WSW,250,10.4,20.7,63,0.00,,,0.00,WUHU216CR1000,2013-05-08 23:32:00,
2013-05-08 16:37:00,63.3,50.6,0.00,WSW,250,10.4,20.7,63,0.00,,,0.00,WUHU216CR1000,2013-05-08 23:37:00,
2013-05-08 16:47:00,62.4,50.6,0.00,WSW,251,10.2,18.9,65,0.00,,,0.00,WUHU216CR1000,2013-05-08 23:47:00,
2013-05-08 16:52:00,62.4,50.6,0.00,WSW,251,10.2,18.9,65,0.00,,,0.00,WUHU216CR1000,2013-05-08 23:52:00,
2013-05-08 17:02:00,61.4,50.5,0.00,WSW,249,11.1,20.7,68,0.00,,,0.00,WUHU216CR1000,2013-05-09 00:02:00,
2013-05-08 17:07:00,61.4,50.5,0.00,WSW,249,11.1,20.7,68,0.00,,,0.00,WUHU216CR1000,2013-05-09 00:07:00,
2013-05-08 17:17:00,61.0,50.5,0.00,WSW,250,10.6,18.9,68,0.00,,,0.00,WUHU216CR1000,2013-05-09 00:17:00,
2013-05-08 17:22:00,61.0,50.5,0.00,WSW,250,10.6,18.9,68,0.00,,,0.00,WUHU216CR1000,2013-05-09 00:22:00,
2013-05-08 17:32:00,59.6,50.2,0.00,WSW,254,10.1,18.9,71,0.00,,,0.00,WUHU216CR1000,2013-05-09 00:32:00,
2013-05-08 17:37:00,59.6,50.2,0.00,WSW,254,10.1,18.9,71,0.00,,,0.00,WUHU216CR1000,2013-05-09 00:37:00,
2013-05-08 17:47:00,59.4,50.1,0.00,WSW,249,9.2,17.1,71,0.00,,,0.00,WUHU216CR1000,2013-05-09 00:47:00,
2013-05-08 17:52:00,59.4,50.1,0.00,WSW,249,9.2,17.1,71,0.00,,,0.00,WUHU216CR1000,2013-05-09 00:52:00,
2013-05-08 18:02:00,59.2,49.8,0.00,WSW,253,9.5,17.1,71,0.00,,,0.00,WUHU216CR1000,2013-05-09 01:02:00,
2013-05-08 18:07:00,59.2,49.8,0.00,WSW,253,9.5,17.1,71,0.00,,,0.00,WUHU216CR1000,2013-05-09 01:07:00,
2013-05-08 18:17:00,58.0,49.4,0.00,WSW,256,9.8,17.1,73,0.00,,,0.00,WUHU216CR1000,2013-05-09 01:17:00,
2013-05-08 18:22:00,58.0,49.4,0.00,WSW,256,9.8,17.1,73,0.00,,,0.00,WUHU216CR1000,2013-05-09 01:22:00,
2013-05-08 18:32:00,56.7,49.1,0.00,WSW,249,11.7,24.3,76,0.00,,,0.00,WUHU216CR1000,2013-05-09 01:32:00,
2013-05-08 18:37:00,56.7,49.1,0.00,WSW,249,11.7,24.3,76,0.00,,,0.00,WUHU216CR1000,2013-05-09 01:37:00,
2013-05-08 18:47:00,55.9,48.8,0.00,WSW,246,11.5,20.7,77,0.00,,,0.00,WUHU216CR1000,2013-05-09 01:47:00,
2013-05-08 18:52:00,55.9,48.8,0.00,WSW,246,11.5,20.7,77,0.00,,,0.00,WUHU216CR1000,2013-05-09 01:52:00,
2013-05-08 19:02:00,55.5,48.6,0.00,WSW,246,9.9,17.1,78,0.00,,,0.00,WUHU216CR1000,2013-05-09 02:02:00,
2013-05-08 19:07:00,55.5,48.6,0.00,WSW,246,9.9,17.1,78,0.00,,,0.00,WUHU216CR1000,2013-05-09 02:07:00,
2013-05-08 19:17:00,55.2,48.6,0.00,WSW,251,9.2,17.1,78,0.00,,,0.00,WUHU216CR1000,2013-05-09 02:17:00,
2013-05-08 19:22:00,55.2,48.6,0.00,WSW,251,9.2,17.1,78,0.00,,,0.00,WUHU216CR1000,2013-05-09 02:22:00,
2013-05-08 19:32:00,54.5,48.4,0.00,WSW,250,8.2,13.5,80,0.00,,,0.00,WUHU216CR1000,2013-05-09 02:32:00,
2013-05-08 19:37:00,54.5,48.4,0.00,WSW,250,8.2,13.5,80,0.00,,,0.00,WUHU216CR1000,2013-05-09 02:37:00,
2013-05-08 19:47:00,54.1,48.3,0.00,WSW,250,8.5,17.1,81,0.00,,,0.00,WUHU216CR1000,2013-05-09 02:47:00,
2013-05-08 19:52:00,54.1,48.3,0.00,WSW,250,8.5,17.1,81,0.00,,,0.00,WUHU216CR1000,2013-05-09 02:52:00,
2013-05-08 20:02:00,53.7,48.2,0.00,WSW,253,7.1,13.5,81,0.00,,,0.00,WUHU216CR1000,2013-05-09 03:02:00,
2013-05-08 20:07:00,53.7,48.2,0.00,WSW,253,7.1,13.5,81,0.00,,,0.00,WUHU216CR1000,2013-05-09 03:07:00,
2013-05-08 20:17:00,53.7,48.1,0.00,WSW,248,6.0,11.7,82,0.00,,,0.00,WUHU216CR1000,2013-05-09 03:17:00,
2013-05-08 20:22:00,53.7,48.1,0.00,WSW,248,6.0,11.7,82,0.00,,,0.00,WUHU216CR1000,2013-05-09 03:22:00,
2013-05-08 20:32:00,53.3,47.9,0.00,WSW,249,6.5,13.5,82,0.00,,,0.00,WUHU216CR1000,2013-05-09 03:32:00,
2013-05-08 20:37:00,53.3,47.9,0.00,WSW,249,6.5,13.5,82,0.00,,,0.00,WUHU216CR1000,2013-05-09 03:37:00,
2013-05-08 20:47:00,53.2,48.0,0.00,WSW,253,4.4,8.2,82,0.00,,,0.00,WUHU216CR1000,2013-05-09 03:47:00,
2013-05-08 20:52:00,53.2,48.0,0.00,WSW,253,4.4,8.2,82,0.00,,,0.00,WUHU216CR1000,2013-05-09 03:52:00,
2013-05-08 21:02:00,53.5,48.1,0.00,WSW,250,5.3,11.7,82,0.00,,,0.00,WUHU216CR1000,2013-05-09 04:02:00,
2013-05-08 21:07:00,53.5,48.1,0.00,WSW,250,5.3,11.7,82,0.00,,,0.00,WUHU216CR1000,2013-05-09 04:07:00,
2013-05-08 21:17:00,53.5,48.1,0.00,WSW,244,5.7,9.9,82,0.00,,,0.00,WUHU216CR1000,2013-05-09 04:17:00,
2013-05-08 21:22:00,53.5,48.1,0.00,WSW,244,5.7,9.9,82,0.00,,,0.00,WUHU216CR1000,2013-05-09 04:22:00,
2013-05-08 21:32:00,53.3,48.1,0.00,WSW,250,5.9,11.7,82,0.00,,,0.00,WUHU216CR1000,2013-05-09 04:32:00,
2013-05-08 21:37:00,53.3,48.1,0.00,WSW,250,5.9,11.7,82,0.00,,,0.00,WUHU216CR1000,2013-05-09 04:37:00,
2013-05-08 21:47:00,53.1,48.0,0.00,WSW,252,6.8,13.5,83,0.00,,,0.00,WUHU216CR1000,2013-05-09 04:47:00,
2013-05-08 21:52:00,53.1,48.0,0.00,WSW,252,6.8,13.5,83,0.00,,,0.00,WUHU216CR1000,2013-05-09 04:52:00,
2013-05-08 22:02:00,52.6,47.8,0.00,WSW,255,5.1,9.9,84,0.00,,,0.00,WUHU216CR1000,2013-05-09 05:02:00,
2013-05-08 22:07:00,52.6,47.8,0.00,WSW,255,5.1,9.9,84,0.00,,,0.00,WUHU216CR1000,2013-05-09 05:07:00,
2013-05-08 22:17:00,52.5,47.8,0.00,West,261,4.9,8.2,84,0.00,,,0.00,WUHU216CR1000,2013-05-09 05:17:00,
2013-05-08 22:22:00,52.5,47.8,0.00,West,261,4.9,8.2,84,0.00,,,0.00,WUHU216CR1000,2013-05-09 05:22:00,
2013-05-08 22:32:00,52.4,47.8,0.00,WSW,258,5.3,9.9,84,0.00,,,0.00,WUHU216CR1000,2013-05-09 05:32:00,
2013-05-08 22:37:00,52.4,47.8,0.00,WSW,258,5.3,9.9,84,0.00,,,0.00,WUHU216CR1000,2013-05-09 05:37:00,
2013-05-08 22:47:00,52.2,47.8,0.00,WSW,257,4.6,8.2,85,0.00,,,0.00,WUHU216CR1000,2013-05-09 05:47:00,
2013-05-08 22:52:00,52.2,47.8,0.00,WSW,257,4.6,8.2,85,0.00,,,0.00,WUHU216CR1000,2013-05-09 05:52:00,
2013-05-08 23:02:00,52.1,47.7,0.00,WSW,256,2.6,8.2,85,0.00,,,0.00,WUHU216CR1000,2013-05-09 06:02:00,
2013-05-08 23:07:00,52.1,47.7,0.00,WSW,256,2.6,8.2,85,0.00,,,0.00,WUHU216CR1000,2013-05-09 06:07:00,
2013-05-08 23:17:00,52.0,47.6,0.00,WNW,283,3.5,8.2,85,0.00,,,0.00,WUHU216CR1000,2013-05-09 06:17:00,
2013-05-08 23:22:00,52.0,47.6,0.00,WNW,283,3.5,8.2,85,0.00,,,0.00,WUHU216CR1000,2013-05-09 06:22:00,
2013-05-08 23:32:00,51.5,47.5,0.00,West,266,1.5,4.6,86,0.00,,,0.00,WUHU216CR1000,2013-05-09 06:32:00,
2013-05-08 23:37:00,51.5,47.5,0.00,West,266,1.5,4.6,86,0.00,,,0.00,WUHU216CR1000,2013-05-09 06:37:00,
2013-05-08 23:47:00,51.0,47.1,0.00,West,271,0.0,2.8,86,0.00,,,0.00,WUHU216CR1000,2013-05-09 06:47:00,
2013-05-08 23:52:00,51.0,47.1,0.00,West,271,0.0,2.8,86,0.00,,,0.00,WUHU216CR1000,2013-05-09 06:52:00,